Simultaneous Nadir Overpasses (SNOs) Predictions

Prediction of SNOs between AURA and NPP Satellite Orbit:

Table of predicted SNOs for the next 14.0 days since TLE Epoch: 2/23/2018
Index Date (AURA) Time (AURA) Lat,Lon (AURA) SZA (AURA ) Date (NPP) Time (NPP) Lat,Lon (NPP) SZA (NPP ) Distance(km) Time Diff (sec)
1 02/26/2018 03:42:02 -79.68,-157.05 78.75 02/26/2018 03:41:01 -79.69,-156.91 78.73 2.81 61
2 02/26/2018 04:31:22 79.89, 12.19 100.92 02/26/2018 04:31:39 79.90, 12.28 100.90 1.82 17
3 02/28/2018 19:58:30 -79.75, -40.68 79.86 02/28/2018 19:57:52 -79.76, -40.58 79.85 2.07 38
4 02/28/2018 20:47:50 79.95, 128.56 99.82 02/28/2018 20:48:30 79.95, 128.62 99.78 1.09 40
5 03/03/2018 12:14:58 -79.81, 75.66 80.98 03/03/2018 12:14:43 -79.81, 75.75 80.99 1.94 15
6 03/03/2018 13:04:18 80.01,-115.10 98.70 03/03/2018 13:05:21 80.01,-115.05 98.64 0.89 63
7 03/06/2018 03:42:03 79.66, 22.81 98.21 03/06/2018 03:40:54 79.67, 22.91 98.24 2.17 69
8 03/06/2018 04:31:24 -79.90,-167.75 82.17 03/06/2018 04:31:32 -79.90,-167.63 82.19 2.39 8
9 03/08/2018 19:58:30 79.75, 139.33 97.03 03/08/2018 19:57:44 79.76, 139.47 97.04 2.95 46




NCC Satellite Simultaneous Nadir Overpasses (SNOs) Prediction Service
